Location: �clusier
(49.9361°N, 2.7869°E)
Time: 09:08:42
(UTC+00:00)

Cosmos 2228 - Pass Details

Date: 16 June 2021
Orbit: 588 x 618 km, 82.5° (Epoch: 02 August)

Event Time Altitude Azimuth Distance (km) Brightness Sun altitude
Rises 22:52:28 0° 346° (NNW) 2,905 8.4 -15.6°
Reaches altitude 10° 22:54:44 10° 341° (NNW) 1,996 7.0 -15.7°
Maximum altitude 22:59:01 52° 266° (W) 770 3.5 -15.8°
Enters shadow 23:01:24 24° 199° (SSW) 1,277 4.2 -15.9°
